• In United Kingdom
  • List of Countries
  • For 7 days
  • Water Temperature
  • Satellite Maps
  • Weather Map
  • Weather Widgets
  • user-avatar
    Login

    Hourly Weather Dinagepoor

    Today, 22 April, Sunday

    Time Temperature Precipitation Wind Pressure Humidity
    00:00 +30°C° 0 mm 3 mps 751 mmHg 78%
    01:00 +30°C° 0.3 mm 3 mps 751 mmHg 79%
    02:00 +30°C° 0.3 mm 3 mps 750 mmHg 81%
    03:00 +30°C° 0.3 mm 3 mps 750 mmHg 83%
    04:00 +29°C° 0.4 mm 3 mps 750 mmHg 84%
    05:00 +29°C° 0.4 mm 3 mps 751 mmHg 85%
    06:00 +29°C° 0 mm 3 mps 751 mmHg 91%
    07:00 +32°C° 0.2 mm 4 mps 752 mmHg 81%
    08:00 +33°C° 0.2 mm 4 mps 752 mmHg 72%
    09:00 +35°C° 0.2 mm 4 mps 753 mmHg 63%
    10:00 +37°C° 0 mm 4 mps 752 mmHg 51%
    11:00 +40°C° 0 mm 4 mps 752 mmHg 39%
    12:00 +42°C° 0 mm 4 mps 752 mmHg 27%
    13:00 +42°C° 0 mm 4 mps 751 mmHg 24%
    14:00 +43°C° 0 mm 4 mps 750 mmHg 20%
    15:00 +43°C° 0 mm 4 mps 750 mmHg 17%
    16:00 +42°C° 0 mm 4 mps 749 mmHg 18%
    17:00 +40°C° 0 mm 3 mps 749 mmHg 20%
    18:00 +39°C° 0 mm 2 mps 748 mmHg 21%
    19:00 +38°C° 0 mm 2 mps 749 mmHg 24%
    20:00 +36°C° 0 mm 2 mps 749 mmHg 28%
    21:00 +34°C° 0 mm 2 mps 750 mmHg 31%
    22:00 +32°C° 0 mm 2 mps 750 mmHg 38%
    23:00 +33°C° 0 mm 3 mps 751 mmHg 46%

    Tomorrow, 23 April, Monday

    Time Temperature Precipitation Wind Pressure Humidity
    00:00 +31°C° 0 mm 3 mps 751 mmHg 54%
    01:00 +30°C° 0 mm 3 mps 751 mmHg 58%
    02:00 +30°C° 0 mm 3 mps 751 mmHg 61%
    03:00 +29°C° 0 mm 2 mps 750 mmHg 65%
    04:00 +29°C° 0 mm 2 mps 751 mmHg 69%
    05:00 +28°C° 0 mm 2 mps 751 mmHg 72%
    06:00 +28°C° 0 mm 2 mps 751 mmHg 75%
    07:00 +30°C° 0 mm 2 mps 752 mmHg 69%
    08:00 +31°C° 0 mm 2 mps 752 mmHg 62%
    09:00 +34°C° 0 mm 3 mps 753 mmHg 55%
    10:00 +36°C° 0 mm 2 mps 753 mmHg 47%
    11:00 +38°C° 0 mm 2 mps 752 mmHg 38%
    12:00 +40°C° 0 mm 2 mps 752 mmHg 30%
    13:00 +41°C° 0 mm 2 mps 751 mmHg 24%
    14:00 +43°C° 0 mm 3 mps 751 mmHg 19%
    15:00 +44°C° 0 mm 3 mps 750 mmHg 13%
    16:00 +43°C° 0 mm 3 mps 749 mmHg 14%
    17:00 +40°C° 0 mm 2 mps 749 mmHg 15%
    18:00 +39°C° 0 mm 2 mps 749 mmHg 16%
    19:00 +38°C° 0 mm 2 mps 749 mmHg 19%
    20:00 +36°C° 0 mm 2 mps 750 mmHg 22%
    21:00 +34°C° 0 mm 2 mps 750 mmHg 26%
    22:00 +33°C° 0 mm 3 mps 751 mmHg 34%
    23:00 +31°C° 0 mm 3 mps 751 mmHg 41%

    Day after tomorrow, 24 April, Tuesday

    Time Temperature Precipitation Wind Pressure Humidity
    00:00 +30°C° 0 mm 3 mps 751 mmHg 49%
    01:00 +30°C° 0 mm 3 mps 751 mmHg 54%
    02:00 +29°C° 0 mm 3 mps 751 mmHg 58%
    03:00 +29°C° 0 mm 2 mps 750 mmHg 63%
    04:00 +28°C° 0 mm 2 mps 751 mmHg 66%
    05:00 +28°C° 0 mm 3 mps 751 mmHg 69%
    06:00 +27°C° 0 mm 3 mps 751 mmHg 71%
    07:00 +29°C° 0 mm 3 mps 752 mmHg 66%
    08:00 +31°C° 0 mm 3 mps 752 mmHg 60%
    09:00 +34°C° 0 mm 4 mps 753 mmHg 55%
    10:00 +36°C° 0 mm 3 mps 752 mmHg 46%
    11:00 +38°C° 0 mm 2 mps 752 mmHg 38%
    12:00 +40°C° 0 mm 2 mps 752 mmHg 30%
    13:00 +41°C° 0 mm 2 mps 751 mmHg 24%
    14:00 +41°C° 0 mm 2 mps 750 mmHg 19%
    15:00 +43°C° 0 mm 3 mps 750 mmHg 13%
    16:00 +41°C° 0 mm 2 mps 749 mmHg 14%
    17:00 +40°C° 0 mm 2 mps 749 mmHg 16%
    18:00 +40°C° 0 mm 2 mps 748 mmHg 17%
    19:00 +38°C° 0 mm 2 mps 749 mmHg 19%
    20:00 +36°C° 0 mm 2 mps 749 mmHg 21%
    21:00 +35°C° 0 mm 3 mps 750 mmHg 24%
    22:00 +34°C° 0 mm 3 mps 750 mmHg 30%
    23:00 +33°C° 0 mm 3 mps 750 mmHg 36%

    25 April, Wednesday

    Time Temperature Precipitation Wind Pressure Humidity
    00:00 +32°C° 0 mm 4 mps 750 mmHg 42%
    01:00 +30°C° 0 mm 3 mps 750 mmHg 46%
    02:00 +29°C° 0 mm 3 mps 750 mmHg 50%
    03:00 +29°C° 0 mm 3 mps 750 mmHg 54%
    04:00 +28°C° 0 mm 3 mps 750 mmHg 59%
    05:00 +28°C° 0 mm 3 mps 750 mmHg 65%
    06:00 +28°C° 0 mm 4 mps 751 mmHg 70%
    07:00 +29°C° 0 mm 4 mps 751 mmHg 67%
    08:00 +32°C° 0 mm 5 mps 752 mmHg 64%
    09:00 +33°C° 0 mm 5 mps 753 mmHg 61%
    10:00 +35°C° 0 mm 5 mps 752 mmHg 56%
    11:00 +37°C° 0 mm 5 mps 752 mmHg 51%
    12:00 +39°C° 0 mm 5 mps 752 mmHg 46%
    13:00 +40°C° 0 mm 4 mps 751 mmHg 41%
    14:00 +40°C° 0 mm 3 mps 750 mmHg 36%
    15:00 +41°C° 0 mm 2 mps 749 mmHg 32%
    16:00 +40°C° 0.2 mm 3 mps 748 mmHg 34%
    17:00 +40°C° 0.2 mm 4 mps 748 mmHg 36%
    18:00 +38°C° 0.2 mm 4 mps 747 mmHg 38%
    19:00 +36°C° 0.2 mm 5 mps 749 mmHg 44%
    20:00 +35°C° 0.2 mm 5 mps 750 mmHg 50%
    21:00 +33°C° 0.2 mm 6 mps 751 mmHg 56%
    22:00 +32°C° 0.2 mm 5 mps 751 mmHg 59%
    23:00 +30°C° 0.2 mm 4 mps 751 mmHg 62%

    26 April, Thursday

    Time Temperature Precipitation Wind Pressure Humidity
    00:00 +29°C° 0.2 mm 4 mps 751 mmHg 65%
    01:00 +29°C° 0.2 mm 4 mps 751 mmHg 66%
    02:00 +28°C° 0.2 mm 4 mps 751 mmHg 67%
    03:00 +28°C° 0.2 mm 4 mps 750 mmHg 69%
    04:00 +28°C° 0.7 mm 4 mps 751 mmHg 70%
    05:00 +27°C° 0.7 mm 4 mps 751 mmHg 70%
    06:00 +27°C° 0.7 mm 5 mps 752 mmHg 71%
    07:00 +28°C° 0 mm 5 mps 752 mmHg 66%
    08:00 +30°C° 0 mm 5 mps 753 mmHg 60%
    09:00 +32°C° 0 mm 5 mps 754 mmHg 54%
    10:00 +34°C° 0.1 mm 5 mps 753 mmHg 53%
    11:00 +35°C° 0.1 mm 5 mps 753 mmHg 51%
    12:00 +36°C° 0.1 mm 5 mps 753 mmHg 49%
    13:00 +37°C° 0 mm 5 mps 752 mmHg 48%
    14:00 +37°C° 0 mm 5 mps 751 mmHg 47%
    15:00 +39°C° 0 mm 5 mps 750 mmHg 45%
    16:00 +37°C° 0 mm 5 mps 750 mmHg 48%
    17:00 +36°C° 0 mm 4 mps 750 mmHg 50%
    18:00 +36°C° 0 mm 4 mps 750 mmHg 53%
    19:00 +35°C° 0.1 mm 4 mps 751 mmHg 56%
    20:00 +34°C° 0.1 mm 4 mps 751 mmHg 59%
    21:00 +33°C° 0.1 mm 4 mps 752 mmHg 62%
    22:00 +32°C° 1.2 mm 4 mps 752 mmHg 65%
    23:00 +32°C° 1.2 mm 4 mps 752 mmHg 68%

    27 April, Friday

    Time Temperature Precipitation Wind Pressure Humidity
    00:00 +30°C° 1.2 mm 4 mps 752 mmHg 71%
    01:00 +29°C° 0.9 mm 4 mps 752 mmHg 72%
    02:00 +29°C° 0.9 mm 4 mps 752 mmHg 73%
    03:00 +29°C° 0.9 mm 4 mps 752 mmHg 74%
    04:00 +28°C° 0.4 mm 4 mps 753 mmHg 76%
    05:00 +28°C° 0.4 mm 5 mps 753 mmHg 78%
    06:00 +28°C° 0.4 mm 5 mps 753 mmHg 80%
    07:00 +28°C° 1.1 mm 5 mps 754 mmHg 79%
    08:00 +28°C° 1.1 mm 5 mps 754 mmHg 78%
    09:00 +28°C° 1.1 mm 6 mps 755 mmHg 76%
    10:00 +29°C° 0.4 mm 6 mps 755 mmHg 75%
    11:00 +29°C° 0.4 mm 6 mps 755 mmHg 73%
    12:00 +29°C° 0.4 mm 6 mps 755 mmHg 72%
    13:00 +30°C° 0.2 mm 6 mps 754 mmHg 66%
    14:00 +32°C° 0.2 mm 6 mps 753 mmHg 60%
    15:00 +33°C° 0.2 mm 7 mps 752 mmHg 54%
    16:00 +32°C° 0.3 mm 6 mps 752 mmHg 55%
    17:00 +32°C° 0.3 mm 5 mps 751 mmHg 57%
    18:00 +30°C° 0.3 mm 5 mps 751 mmHg 58%
    19:00 +29°C° 0.4 mm 5 mps 752 mmHg 62%
    20:00 +28°C° 0.4 mm 5 mps 753 mmHg 66%
    21:00 +27°C° 0.4 mm 5 mps 754 mmHg 70%
    22:00 +27°C° 0 mm 4 mps 754 mmHg 72%
    23:00 +27°C° 0 mm 3 mps 754 mmHg 74%
    Show more